Regional Weather Roundup
Issued by NWS Jackson, KY

Home | Current Version | Previous Version | Graphics & Text | Print | Product List | Glossary On
Versions: 1 2 3 4 5 6 7 8 9 10 11 12 13 14 15 16 17 18 19 20 21 22 23 24 25 26 27 28 29 30 31 32 33 34 35 36 37 38 39 40 41 42 43 44 45 46 47 48 49 50
000
ASUS43 KJKL 241310
RWRJKL

EAST KENTUCKY HOURLY WEATHER ROUNDUP
NATIONAL WEATHER SERVICE JACKSON KY
800 AM EST MON NOV 24 2014

NOTE: "FAIR" INDICATES FEW OR NO CLOUDS BELOW 12,000 FEET WITH
NO SIGNIFICANT WEATHER AND/OR OBSTRUCTIONS TO VISIBILITY.

* THESE REPORTS ARE NOT UNDER NWS QUALITY CONTROL AND MAY NOT
  REPORT WEATHER SUCH AS PRECIPITATION AND FOG.

KYZ079-080-083-085-087-088-110-112-115-119-120-241400
...EASTERN KENTUCKY...

CITY           SKY/WX    TMP DP  RH WIND       PRES   REMARKS
JACKSON        CLEAR     60  48  64 VRB7G20   29.52R
LONDON         PTCLDY    65  46  50 SW20G31   29.54R
SOMERSET*      CLOUDY    61  50  67 SW18G26   29.55R
MONTICELLO*    MOCLDY    63  51  64 SW22G31   29.57R
MIDDLESBORO*   MOCLDY    60  53  75 S15G24    29.62R
HARLAN APT*    MOSUNNY   61  46  59 S13G28    29.60S
BLACK MTN*       N/A     48  48 100 S12         N/A
BIG SANDY*     SUNNY     63  48  58 SW16G26   29.52S
MOREHEAD APT*  PTSUNNY   63  50  63 SW23G33   29.47R
$$

KYZ035-036-041-042-044-050-067-078-099-241400
...CENTRAL KENTUCKY...

CITY           SKY/WX    TMP DP  RH WIND       PRES   REMARKS
MT STERLING*   CLOUDY    61  52  72 SW22G30   29.47R
FLEMING/MASON* PTCLDY    59  52  77 S22G29    29.42F
DANVILLE*      MOCLDY    59  50  72 SW20G30   29.47S
RICHMOND*      CLOUDY    59  52  77 S14G25    29.48R
LEXINGTON      MOCLDY    60  51  72 S26G38    29.42S
FRANKFORT      MOCLDY    61  50  67 SW25G35   29.38R
$$

KYZ091>093-OHZ055-061-077-WVZ005-015-034-035-042-241400
...SOUTHERN OHIO/WEST VIRGINIA...

CITY           SKY/WX    TMP DP  RH WIND       PRES   REMARKS
COVINGTON      MOCLDY    61  50  67 S26G38    29.31R
COLUMBUS       MOCLDY    60  52  74 S18G26    29.33F
DAYTON         LGT RAIN  61  54  77 S23G39    29.25F
WILMINGTON     MOCLDY    58  52  80 S22G33    29.30F
HUNTINGTON     CLEAR     62  49  62 S16G31    29.45F
CHARLESTON     PTCLDY    63  48  58 S18G24    29.52R
PINEVILLE*     CLOUDY    59  54  83 MISG      29.69R
BECKLEY          N/A     57  46  66 S14G21    29.64R
BLUEFIELD      CLEAR     54  46  74 S9        29.68R
$$

VAZ002-007-008-TNZ017-027-036-066-071-241400
...SOUTHWEST VIRGINIA/EAST TENNESSEE...

CITY           SKY/WX    TMP DP  RH WIND       PRES   REMARKS
WISE*          PTCLDY    57  45  62 SW25G41   29.64R
JONESVILLE*    MOSUNNY   61  50  67 SW18G29   29.66R
ABINGDON*      PTCLDY    56  49  76 W7        29.68R
BRISTOL        PTCLDY    48  46  93 S5        29.69R
KNOXVILLE      PTCLDY    62  51  67 S21G28    29.64S
OAK RIDGE      CLOUDY    63  54  72 S8G20     29.65S
CROSSVILLE     PTCLDY    61  52  72 S15G24    29.63R
NASHVILLE      PTCLDY    61  49  64 SW18G28   29.56R
$$

...KEY TO REMARKS...
VSB - VISIBILITY IN MILES
WCI - WIND CHILL INDEX
HX  - HEAT INDEX

$$



USA.gov is the U.S. government's official web portal to all federal, state and local government web resources and services.